Regional Weather Roundup
Issued by NWS Sioux Falls, SD

Home | Current Version | Previous Version | Graphics & Text | Print | Product List | Glossary Off
Versions: 1 2 3 4 5 6 7 8 9 10 11 12 13 14 15 16 17 18 19 20 21 22 23 24 25 26 27 28 29 30 31 32 33 34 35 36 37 38 39 40 41 42 43 44 45 46 47 48 49 50

000
ASUS43 KFSD 240410
RWRFSD

WEATHER ROUNDUP FOR SE SOUTH DAKOTA/SW MINNESOTA/NW IOWA
NATIONAL WEATHER SERVICE SIOUX FALLS SD
1000 PM CST MON JAN 23 2017

NOTE: "FAIR" INDICATES FEW OR NO CLOUDS BELOW 12,000 FEET WITH NO
SIGNIFICANT WEATHER AND OR OBSTRUCTIONS TO VISIBILITY.


SDZ038>040-050-052>070-240500-
SOUTHEAST SOUTH DAKOTA

CITY           SKY/WX    TMP DP  RH WIND       PRES   REMARKS
BROOKINGS      CLOUDY    30  27  88 SE8       29.80R WCI  22
CHAMBERLAIN    CLOUDY    32  31  94 E6        29.76S WCI  26
HURON          CLOUDY    31  29  92 SE7       29.80S WCI  24
MADISON        CLOUDY    28  28 100 S13         N/A  WCI  18
MITCHELL       CLOUDY    32  29  88 SE12      29.81R WCI  23
SIOUX FALLS    CLOUDY    32  30  92 SE8       29.82S WCI  25
WINNER         CLOUDY    33  29  85 SE10      29.72R WCI  25
YANKTON        CLOUDY    30  27  86 E8        29.80F WCI  23
$$

MNZ071-072-080-081-089-090-097-098-240500-
SOUTHWEST MINNESOTA

CITY           SKY/WX    TMP DP  RH WIND       PRES   REMARKS
FAIRMONT       CLOUDY    31  30  96 CALM      29.86R
JACKSON        CLOUDY    30  28  93 CALM      29.84R
LUVERNE        CLOUDY    30  27  86 SE5       29.83R WCI  25
MARSHALL       CLOUDY    31  28  89 SE3       29.84S
MONTEVIDEO     CLOUDY    30  30 100 CALM      29.86R
PIPESTONE      CLOUDY    30  28  93 SE6       29.80R WCI  24
REDWOOD FALLS  CLOUDY    33  26  75 CALM      29.84F
TRACY          CLOUDY    32  29  89 CALM      29.84S
WINDOM         CLOUDY    30  28  93 CALM      29.84S
WORTHINGTON    CLOUDY    30  28  92 E5        29.83S WCI  25
$$

IAZ001>003-012>014-020>022-031-032-NEZ013-014-SDZ071-240500-
NORTHWEST IOWA

CITY           SKY/WX    TMP DP  RH WIND       PRES   REMARKS
CHEROKEE       CLOUDY    32  31  96 CALM      29.85R
DENISON        CLOUDY    32  28  86 S5G12     29.83R WCI  27
ESTHERVILLE    CLOUDY    31  29  92 CALM      29.84R
LE MARS        CLOUDY    32  30  93 CALM      29.85S
ORANGE CITY    CLOUDY    32  30  93 CALM      29.84R
SHELDON        CLOUDY    32  32 100 SE6       29.82S WCI  26
SIOUX CITY     CLOUDY    33  30  88 E6        29.83F WCI  28
SPENCER        CLOUDY    32  30  92 S3        29.85R
STORM LAKE     CLOUDY    32  30  93 SE5       29.84S WCI  27
$$

ABBREVIATIONS USED IN REMARKS
   TC - TEMPERATURE IN CELSIUS
  WCI - WIND CHILL INDEX
   HX - HEAT INDEX
  VSB - VISIBILITY




USA.gov is the U.S. government's official web portal to all federal, state and local government web resources and services.